{"data":{"norad_id":63868,"epoch":"2026-09-20T23:02:11.191200Z","epoch_age_seconds":107269,"freshness":"FRESH","line1":"1 63868U 25094E   26263.95985175  .00018703  00000+0  63678-3 0  9990","line2":"2 63868  70.0011  99.6881 0003198 270.8566  89.2243 15.30421186 76516","mean_motion":15.30421186,"eccentricity":0.0003198,"inclination_deg":70.0011,"raan_deg":99.6881,"arg_perigee_deg":270.8566,"mean_anomaly_deg":89.2243,"bstar":0.00063678,"rev_number":7651,"period_min":94.091745015872,"perigee_km":472.3632366194,"apogee_km":476.74621824827,"semimajor_km":6852.6917274338,"source":"CELESTRAK","updated_at":"2026-09-21T09:00:35.137819Z"}}